Time,TemperatureF,DewpointF,PressureIn,WindDirection,WindDirectionDegrees,WindSpeedMPH,WindSpeedGustMPH,Humidity,HourlyPrecipIn,Conditions,Clouds,dailyrainin,SoftwareType,DateUTC
2013-03-03 02:28:00,22.6,18.7,29.09,North,0,2.4,4.0,85,0.00,,,0.00,WUHU216HW,2013-03-03 07:28:00,
2013-03-03 02:33:00,22.6,18.7,29.09,North,0,2.2,3.1,85,0.00,,,0.00,WUHU216HW,2013-03-03 07:33:00,
2013-03-03 02:38:00,22.6,18.7,29.09,North,0,1.7,2.9,85,0.00,,,0.00,WUHU216HW,2013-03-03 07:38:00,
2013-03-03 02:43:00,22.4,18.5,29.09,North,0,1.3,2.9,85,0.00,,,0.00,WUHU216HW,2013-03-03 07:43:00,
2013-03-03 02:48:00,22.4,18.5,29.08,North,0,3.1,3.5,85,0.00,,,0.00,WUHU216HW,2013-03-03 07:48:00,
2013-03-03 02:54:00,22.2,18.4,29.08,North,0,1.7,3.5,85,0.00,,,0.00,WUHU216HW,2013-03-03 07:54:00,
2013-03-03 02:59:00,22.4,18.5,29.08,North,0,1.1,2.4,85,0.00,,,0.00,WUHU216HW,2013-03-03 07:59:00,
2013-03-03 03:04:00,22.2,18.4,29.08,North,0,1.7,2.6,85,0.00,,,0.00,WUHU216HW,2013-03-03 08:04:00,
2013-03-03 03:09:00,22.2,18.4,29.08,North,0,1.5,2.6,85,0.00,,,0.00,WUHU216HW,2013-03-03 08:09:00,
2013-03-03 03:14:00,22.2,18.4,29.08,North,0,3.3,3.3,85,0.00,,,0.00,WUHU216HW,2013-03-03 08:14:00,
2013-03-03 03:19:00,22.1,18.2,29.08,North,0,4.0,4.0,85,0.00,,,0.00,WUHU216HW,2013-03-03 08:19:00,
2013-03-03 03:24:00,22.1,18.2,29.08,North,0,2.2,4.0,85,0.00,,,0.00,WUHU216HW,2013-03-03 08:24:00,
2013-03-03 03:29:00,22.1,18.2,29.08,North,0,4.0,4.0,85,0.00,,,0.00,WUHU216HW,2013-03-03 08:29:00,
2013-03-03 03:35:00,22.1,18.2,29.08,NNW,338,2.4,4.0,85,0.00,,,0.00,WUHU216HW,2013-03-03 08:35:00,
2013-03-03 03:40:00,22.1,18.2,29.08,NNW,338,2.9,4.6,85,0.00,,,0.00,WUHU216HW,2013-03-03 08:40:00,
2013-03-03 03:45:00,22.1,18.2,29.08,NNW,338,4.9,4.9,85,0.00,,,0.00,WUHU216HW,2013-03-03 08:45:00,
2013-03-03 03:50:00,22.1,18.2,29.08,NNW,338,3.8,4.9,85,0.00,,,0.00,WUHU216HW,2013-03-03 08:50:00,
2013-03-03 03:55:00,22.1,18.2,29.08,NNW,338,0.6,4.9,85,0.00,,,0.00,WUHU216HW,2013-03-03 08:55:00,
2013-03-03 04:00:00,22.1,18.2,29.08,North,0,1.5,2.2,85,0.00,,,0.00,WUHU216HW,2013-03-03 09:00:00,
2013-03-03 04:05:00,22.1,18.2,29.08,North,0,5.1,5.1,85,0.00,,,0.00,WUHU216HW,2013-03-03 09:05:00,
2013-03-03 04:11:00,22.1,18.5,29.08,NNW,338,6.4,7.1,86,0.00,,,0.00,WUHU216HW,2013-03-03 09:11:00,
2013-03-03 04:16:00,22.1,18.5,29.08,NNW,338,7.1,7.1,86,0.00,,,0.00,WUHU216HW,2013-03-03 09:16:00,
2013-03-03 04:21:00,22.1,18.5,29.08,NNW,338,6.9,7.1,86,0.00,,,0.00,WUHU216HW,2013-03-03 09:21:00,
2013-03-03 04:26:00,21.9,18.3,29.08,North,0,4.4,7.1,86,0.00,,,0.00,WUHU216HW,2013-03-03 09:26:00,
2013-03-03 04:31:00,21.9,18.0,29.08,NNW,338,5.1,6.9,85,0.00,,,0.00,WUHU216HW,2013-03-03 09:31:00,
2013-03-03 04:36:00,21.9,18.0,29.08,NNW,338,8.7,8.7,85,0.00,,,0.00,WUHU216HW,2013-03-03 09:36:00,
2013-03-03 04:41:00,21.9,18.0,29.08,NNW,338,8.2,9.3,85,0.00,,,0.00,WUHU216HW,2013-03-03 09:41:00,
2013-03-03 04:46:00,21.9,18.0,29.08,NNW,338,6.7,9.3,85,0.00,,,0.00,WUHU216HW,2013-03-03 09:46:00,
2013-03-03 04:52:00,21.9,18.0,29.09,NNW,338,7.3,7.8,85,0.00,,,0.00,WUHU216HW,2013-03-03 09:52:00,
2013-03-03 04:57:00,21.9,17.7,29.09,NNW,338,8.0,8.0,84,0.00,,,0.00,WUHU216HW,2013-03-03 09:57:00,
2013-03-03 05:02:00,21.9,17.7,29.09,North,0,7.3,8.0,84,0.00,,,0.00,WUHU216HW,2013-03-03 10:02:00,
2013-03-03 05:04:00,21.9,17.7,29.09,NNW,338,5.5,8.0,84,0.00,,,0.00,WUHU216HW,2013-03-03 10:04:00,
2013-03-03 06:59:00,21.3,17.2,29.10,NNW,338,5.8,10.0,84,0.00,,,0.00,WUHU216HW,2013-03-03 11:59:00,
2013-03-03 07:04:00,21.3,17.2,29.10,NNW,338,7.3,10.0,84,0.00,,,0.00,WUHU216HW,2013-03-03 12:04:00,
2013-03-03 07:09:00,21.3,17.2,29.10,NNW,338,8.7,8.7,84,0.00,,,0.00,WUHU216HW,2013-03-03 12:09:00,
2013-03-03 07:14:00,21.5,17.4,29.10,NNW,338,7.8,8.7,84,0.00,,,0.00,WUHU216HW,2013-03-03 12:14:00,
2013-03-03 07:19:00,21.3,17.2,29.10,NNW,338,6.9,8.2,84,0.00,,,0.00,WUHU216HW,2013-03-03 12:19:00,
2013-03-03 07:24:00,21.7,17.6,29.10,NNW,338,5.5,7.8,84,0.00,,,0.00,WUHU216HW,2013-03-03 12:24:00,
2013-03-03 07:30:00,21.9,17.5,29.10,NNW,338,4.9,7.3,83,0.00,,,0.00,WUHU216HW,2013-03-03 12:30:00,
2013-03-03 07:35:00,21.9,17.5,29.10,NNW,338,5.5,7.3,83,0.00,,,0.00,WUHU216HW,2013-03-03 12:35:00,
2013-03-03 07:40:00,22.2,17.8,29.11,NNW,338,6.2,7.3,83,0.00,,,0.00,WUHU216HW,2013-03-03 12:40:00,
2013-03-03 07:45:00,22.6,18.2,29.11,NNW,338,4.4,7.3,83,0.00,,,0.00,WUHU216HW,2013-03-03 12:45:00,
2013-03-03 07:50:00,22.8,18.4,29.11,NNW,338,7.3,7.3,83,0.00,,,0.00,WUHU216HW,2013-03-03 12:50:00,
2013-03-03 07:55:00,23.0,18.3,29.11,NNW,338,6.2,7.3,82,0.00,,,0.00,WUHU216HW,2013-03-03 12:55:00,
2013-03-03 08:00:00,23.1,18.5,29.11,NNW,338,6.0,6.9,82,0.00,,,0.00,WUHU216HW,2013-03-03 13:00:00,
2013-03-03 08:05:00,23.3,18.6,29.11,NNW,338,5.5,6.7,82,0.00,,,0.00,WUHU216HW,2013-03-03 13:05:00,
2013-03-03 08:11:00,24.0,19.4,29.11,NNW,338,4.4,6.7,82,0.00,,,0.00,WUHU216HW,2013-03-03 13:11:00,
2013-03-03 08:16:00,25.1,20.1,29.11,NNW,338,4.6,6.2,81,0.00,,,0.00,WUHU216HW,2013-03-03 13:16:00,
2013-03-03 08:21:00,25.5,20.2,29.11,North,0,7.3,7.3,80,0.00,,,0.00,WUHU216HW,2013-03-03 13:21:00,
2013-03-03 08:26:00,25.7,20.3,29.11,NNW,338,5.5,7.3,80,0.00,,,0.00,WUHU216HW,2013-03-03 13:26:00,
2013-03-03 08:31:00,26.2,20.5,29.11,North,0,3.1,7.3,79,0.00,,,0.00,WUHU216HW,2013-03-03 13:31:00,
2013-03-03 08:36:00,26.2,20.2,29.11,NNW,338,3.8,7.3,78,0.00,,,0.00,WUHU216HW,2013-03-03 13:36:00,
2013-03-03 08:41:00,26.4,20.1,29.11,NNW,338,8.9,8.9,77,0.00,,,0.00,WUHU216HW,2013-03-03 13:41:00,
2013-03-03 08:46:00,27.3,20.6,29.11,NNW,338,4.4,8.9,76,0.00,,,0.00,WUHU216HW,2013-03-03 13:46:00,
2013-03-03 08:52:00,27.5,20.8,29.11,NNW,338,7.3,7.3,76,0.00,,,0.00,WUHU216HW,2013-03-03 13:52:00,
2013-03-03 09:44:00,27.6,20.4,29.10,North,0,8.7,8.7,73,0.00,,,0.00,WUHU216HW,2013-03-03 14:44:00,
2013-03-03 09:54:00,27.6,20.1,29.10,North,0,6.4,8.7,73,0.00,,,0.00,WUHU216HW,2013-03-03 14:54:00,
2013-03-03 09:59:00,27.5,19.9,29.10,North,0,7.1,7.8,73,0.00,,,0.00,WUHU216HW,2013-03-03 14:59:00,
2013-03-03 10:04:00,27.5,19.9,29.10,NNW,338,10.2,10.5,73,0.00,,,0.00,WUHU216HW,2013-03-03 15:04:00,
2013-03-03 10:09:00,27.8,20.3,29.11,NNW,338,7.3,10.5,73,0.00,,,0.00,WUHU216HW,2013-03-03 15:09:00,
2013-03-03 10:14:00,28.2,20.3,29.10,NNW,338,7.3,10.2,72,0.00,,,0.00,WUHU216HW,2013-03-03 15:14:00,
2013-03-03 10:19:00,28.7,20.8,29.10,North,0,6.4,9.6,72,0.00,,,0.00,WUHU216HW,2013-03-03 15:19:00,
2013-03-03 10:24:00,29.1,20.5,29.11,North,0,7.8,9.6,70,0.00,,,0.00,WUHU216HW,2013-03-03 15:24:00,
2013-03-03 10:29:00,29.1,19.8,29.10,NNW,338,9.3,9.6,68,0.00,,,0.00,WUHU216HW,2013-03-03 15:29:00,
2013-03-03 10:34:00,29.4,19.6,29.10,NNW,338,9.8,9.8,66,0.00,,,0.00,WUHU216HW,2013-03-03 15:34:00,
2013-03-03 10:39:00,29.8,19.4,29.10,NNW,338,10.5,10.5,65,0.00,,,0.00,WUHU216HW,2013-03-03 15:39:00,
2013-03-03 10:44:00,29.4,19.1,29.10,NNW,338,10.7,12.5,65,0.00,,,0.00,WUHU216HW,2013-03-03 15:44:00,
2013-03-03 10:49:00,29.8,19.4,29.10,North,0,7.8,13.1,65,0.00,,,0.00,WUHU216HW,2013-03-03 15:49:00,
2013-03-03 10:54:00,30.7,19.9,29.10,North,0,6.4,13.1,64,0.00,,,0.00,WUHU216HW,2013-03-03 15:54:00,
2013-03-03 10:59:00,31.6,20.4,29.10,NNW,338,12.5,12.5,63,0.00,,,0.00,WUHU216HW,2013-03-03 15:59:00,
2013-03-03 11:04:00,31.2,19.7,29.10,NNW,338,10.0,12.5,61,0.00,,,0.00,WUHU216HW,2013-03-03 16:04:00,
2013-03-03 11:07:00,31.4,19.9,29.10,NNW,338,10.0,12.5,62,0.00,,,0.00,WUHU216HW,2013-03-03 16:07:00,
2013-03-03 11:12:00,31.8,19.9,29.10,North,0,9.8,10.9,61,0.02,,,0.00,WUHU216HW,2013-03-03 16:12:00,
2013-03-03 11:27:00,30.9,19.0,29.10,North,0,12.9,12.9,61,0.02,,,0.02,WUHU216HW,2013-03-03 16:27:00,
2013-03-03 11:32:00,31.2,19.7,29.10,NNW,338,10.5,12.9,62,0.02,,,0.02,WUHU216HW,2013-03-03 16:32:00,
2013-03-03 11:36:00,31.8,19.9,29.10,North,0,8.5,11.8,61,0.02,,,0.02,WUHU216HW,2013-03-03 16:36:00,
2013-03-03 11:37:00,31.8,19.9,29.10,North,0,8.5,11.8,61,0.02,,,0.02,WUHU216HW,2013-03-03 16:37:00,
2013-03-03 11:41:00,31.6,19.4,29.10,North,0,8.7,11.8,60,0.02,,,0.02,WUHU216HW,2013-03-03 16:41:00,
2013-03-03 11:46:00,31.2,18.6,29.10,North,0,8.7,12.7,59,0.02,,,0.02,WUHU216HW,2013-03-03 16:46:00,
2013-03-03 11:52:00,30.5,18.6,29.10,North,0,7.6,12.7,61,0.02,,,0.02,WUHU216HW,2013-03-03 16:52:00,
2013-03-03 11:57:00,30.7,19.5,29.10,NNW,338,9.1,9.6,63,0.02,,,0.02,WUHU216HW,2013-03-03 16:57:00,
2013-03-03 12:02:00,30.7,19.5,29.10,SSW,203,6.4,10.5,63,0.02,,,0.02,WUHU216HW,2013-03-03 17:02:00,
2013-03-03 12:07:00,31.1,19.9,29.10,NNW,338,7.3,10.5,63,0.02,,,0.02,WUHU216HW,2013-03-03 17:07:00,
2013-03-03 12:12:00,32.3,20.8,29.10,NNW,338,8.0,9.8,62,0.00,,,0.02,WUHU216HW,2013-03-03 17:12:00,
2013-03-03 12:17:00,32.3,19.6,29.09,NNW,338,15.6,15.6,59,0.00,,,0.02,WUHU216HW,2013-03-03 17:17:00,
2013-03-03 12:22:00,31.6,19.7,29.09,SSW,203,6.0,15.6,61,0.00,,,0.02,WUHU216HW,2013-03-03 17:22:00,
2013-03-03 12:27:00,30.7,18.8,29.09,NNW,338,11.1,12.7,61,0.00,,,0.02,WUHU216HW,2013-03-03 17:27:00,
2013-03-03 12:33:00,29.4,18.3,29.09,North,0,7.1,11.1,63,0.00,,,0.02,WUHU216HW,2013-03-03 17:33:00,
2013-03-03 12:38:00,29.1,18.0,29.10,NNW,338,8.2,10.9,63,0.00,,,0.02,WUHU216HW,2013-03-03 17:38:00,
2013-03-03 12:43:00,29.1,18.4,29.09,North,0,17.4,17.4,64,0.00,,,0.02,WUHU216HW,2013-03-03 17:43:00,
2013-03-03 12:48:00,30.2,19.4,29.09,North,0,6.7,17.4,64,0.00,,,0.02,WUHU216HW,2013-03-03 17:48:00,
2013-03-03 12:53:00,30.5,19.0,29.08,North,0,9.6,10.2,62,0.00,,,0.02,WUHU216HW,2013-03-03 17:53:00,
2013-03-03 12:58:00,30.0,18.8,29.09,North,0,6.4,9.6,63,0.00,,,0.02,WUHU216HW,2013-03-03 17:58:00,
2013-03-03 13:03:00,29.1,18.7,29.08,NNW,338,13.4,13.4,65,0.00,,,0.02,WUHU216HW,2013-03-03 18:03:00,
2013-03-03 13:08:00,29.1,19.1,29.08,North,0,6.9,13.4,66,0.00,,,0.02,WUHU216HW,2013-03-03 18:08:00,
2013-03-03 13:14:00,29.6,19.6,29.08,NNW,338,6.4,12.9,66,0.00,,,0.02,WUHU216HW,2013-03-03 18:14:00,
2013-03-03 13:19:00,30.0,19.5,29.08,North,0,12.5,12.9,65,0.00,,,0.02,WUHU216HW,2013-03-03 18:19:00,
2013-03-03 13:24:00,30.2,19.7,29.08,NNW,338,8.2,12.5,65,0.00,,,0.02,WUHU216HW,2013-03-03 18:24:00,
2013-03-03 13:29:00,30.3,19.5,29.08,NNW,338,12.0,12.0,64,0.00,,,0.02,WUHU216HW,2013-03-03 18:29:00,
2013-03-03 13:34:00,30.2,18.6,29.08,North,0,7.3,12.0,62,0.00,,,0.02,WUHU216HW,2013-03-03 18:34:00,
2013-03-03 13:36:00,30.0,18.8,29.08,North,0,8.0,12.0,63,0.00,,,0.02,WUHU216HW,2013-03-03 18:36:00,
2013-03-03 14:30:00,30.0,18.8,29.08,North,0,8.0,8.0,63,0.00,,,0.02,WUHU216HW,2013-03-03 19:30:00,